Weather History for El Centro, CA

Change the Weather History Date:

Monday, March 11, 2013

  Actual Average Record
Temperature  
Mean Temperature 64 °F -  
Max Temperature 82 °F 76 °F 91 °F (1997)
Min Temperature 45 °F 52 °F 45 °F (2009)
Degree Days  
Heating Degree Days 2    
Growing Degree Days 14 (Base 50)    
Moisture  
Dew Point 23 °F    
Average Humidity 24    
Maximum Humidity 40    
Minimum Humidity 10    
Precipitation  
Precipitation 0.00 in - - ()
Sea Level Pressure  
Sea Level Pressure 30.13 in    
Wind  
Wind Speed 6 mph (West)    
Max Wind Speed 10 mph    
Max Gust Speed -    
Visibility 10 miles    
Events      
Averages and records for this station are not official NWS values.
T = Trace of Precipitation, MM = Missing Value Source: NWS Daily Summary

Daily Weather History Graph

Daily Weather History Graph

Search for Another Location

Airport:

Trip Planner

Search our weather history database for the weather conditions in past years. The results will help you decide how hot, cold, wet, or windy it might be!

Date:

Astronomy

Mar. 11, 2013 Rise Set
Actual Time 6:57 AM PDT 6:47 PM PDT
Civil Twilight 6:33 AM PDT 7:12 PM PDT
Nautical Twilight 6:04 AM PDT 7:41 PM PDT
Astronomical Twilight 5:35 AM PDT 8:09 PM PDT
Moon 6:35 AM PDT (3/11) 7:01 PM PDT (3/11)
Length of Visible Light 12h 39m
Length of Day
11h 50m
Waning Crescent, 0% of the Moon is Illuminated
Mar 11
Waning Crescent
Mar 11
New
Mar 19
First Quarter
Mar 27
Full
Apr 2
Last Quarter

Hourly Weather History & Observations

Time (PDT) Temp. Windchill Dew Point Humidity Pressure Visibility Wind Dir Wind Speed Gust Speed Precip Events Conditions
12:56 AM 54.0 °F - 21.0 °F 28% 30.19 in 10.0 mi West 10.4 mph - N/A   Clear
1:56 AM 51.1 °F - 21.0 °F 31% 30.19 in 10.0 mi WSW 9.2 mph - N/A   Clear
2:56 AM 52.0 °F - 21.0 °F 30% 30.18 in 10.0 mi West 8.1 mph - N/A   Clear
3:56 AM 48.9 °F - 21.0 °F 33% 30.16 in 10.0 mi West 8.1 mph - N/A   Clear
4:56 AM 46.9 °F - 21.0 °F 36% 30.16 in 10.0 mi West 8.1 mph - N/A   Clear
5:56 AM 45.0 °F - 21.9 °F 40% 30.17 in 10.0 mi Calm Calm - N/A   Clear
6:56 AM 45.0 °F 43.5 °F 21.0 °F 39% 30.18 in 10.0 mi West 3.5 mph - N/A   Clear
7:56 AM 50.0 °F - 21.9 °F 33% 30.19 in 10.0 mi Calm Calm - N/A   Clear
8:56 AM 57.9 °F - 24.1 °F 27% 30.21 in 10.0 mi West 4.6 mph - N/A   Clear
9:56 AM 66.0 °F - 30.9 °F 27% 30.21 in 10.0 mi West 3.5 mph - N/A   Clear
10:56 AM 73.0 °F - 21.9 °F 15% 30.20 in 10.0 mi Calm Calm - N/A   Clear
11:56 AM 78.1 °F - 19.0 °F 11% 30.19 in 10.0 mi Variable 3.5 mph - N/A   Clear
12:56 PM 80.1 °F - 18.0 °F 10% 30.16 in 10.0 mi Variable 5.8 mph - N/A   Clear
1:56 PM 81.0 °F - 19.9 °F 10% 30.12 in 10.0 mi North 5.8 mph - N/A   Clear
2:56 PM 82.0 °F - 21.9 °F 11% 30.09 in 10.0 mi NNE 6.9 mph - N/A   Clear
3:56 PM 81.0 °F - 23.0 °F 12% 30.06 in 10.0 mi Variable 4.6 mph - N/A   Clear
4:56 PM 82.0 °F - 21.9 °F 11% 30.04 in 10.0 mi NNE 4.6 mph - N/A   Clear
5:56 PM 82.0 °F - 21.0 °F 10% 30.03 in 10.0 mi Calm Calm - N/A   Clear
6:56 PM 75.0 °F - 25.0 °F 16% 30.02 in 10.0 mi South 4.6 mph - N/A   Clear
7:56 PM 69.1 °F - 28.0 °F 22% 30.03 in 10.0 mi SSW 5.8 mph - N/A   Clear
8:56 PM 64.9 °F - 28.0 °F 25% 30.05 in 10.0 mi SSW 4.6 mph - N/A   Clear
9:56 PM 61.0 °F - 28.0 °F 29% 30.06 in 10.0 mi Calm Calm - N/A   Clear
10:56 PM 57.9 °F - 30.0 °F 35% 30.07 in 10.0 mi West 4.6 mph - N/A   Clear
11:56 PM 60.1 °F - 23.0 °F 24% 30.06 in 10.0 mi WSW 6.9 mph - N/A   Clear